Showing default

COSMOS 2091, 20736

Orbit data source: Space-Track

COSMOS 2091, 20736 is a payload satellite owned by UNKS (CIS) in LEO that was launched on Wed, 08 Aug 1990 UTC via a TSIKLON-3 launch vehicle from the Plesetsk Missile And Space Complex (PKMTR). Payload-class satellites include a variety of spacecraft equipped with specific instruments for various scientific and technological missions. These include communications satellites like Starlink; space stations such as the ISS; scientific satellites like the Hubble; Earth observation satellites from companies like Planet Labs, Umbra, and HawkEye 360; GPS; miniature CubeSats for education and research; and military/defense satellites.

Loading next visibility...
Identifier
20736, 1990-070B
Orbit
LEO
Country
Flag of CISCIS
Related business
Manufacturer
NPO PM
Mission
Defense Communications
Bus & Motor
STRELA-3, Unknown motor
Mass
225 kg wet, 225 kg dry
Launch date (UTC)
1990-08-08 (35 years ago)
Launch vehicle
TSIKLON-3
Launch site
Plesetsk Missile And Space Complex (PKMTR)
Object type
Payload
Rocket body
Debris
Shape & HBR
Cyl, 0.8 m
Radar Cross Section
1.257 m², Large (>1 m²)

Expand to show TLE details & history
Last TLE update: 9 hours ago

TLE from 9 hours ago
0 COSMOS 2091
1 20736U 90070B   26036.58297808  .00000015  00000-0  25389-4 0  9995
2 20736  82.5745  52.1868 0004503  59.7947  62.8769 12.62556482635704
Epoch: 2026-02-05T13:59Z
TLE epoch observation values (Epoch: 2026-02-05T13:59:29.306Z)
Latitude
56.633°
Longitude
-124.77574°
Altitude
1,420.226 km
Speed
7.157 km/s
True Right ascension
14h 43m 19s
True Declination
56° 29' 18"
Sunlit
Object was in daylight at epoch
Visualization orbit readout
Latitude
Unknown
Longitude
Unknown
Altitude
Unknown
Speed
Unknown
Apparent Right ascension
Unknown
Apparent Declination
Unknown
Sunlit
N/A
Visualization observer readout
Local Sidereal Time
01:17:39
Azimuth
Unknown
Elevation
Unknown
Doppler factor
Unknown
Orbital elements
Apogee altitude
1,413.238 km
Perigee altitude
1,406.224 km
Semi-major axis
7,787.868 km
Eccentricity
0.00045
Inclination
82.5745°
RAAN
52.1868°
Arg. of periapsis
59.7947°
True anomaly
62.92284°
Mean anomaly
62.8769°
Eccentric anomaly
62.89987°
Mean motion
3.15802 °/min
Orbital period
114 mins
BSTAR
0.000025389
Loading maneuver chart data...
Computing Atmospheric mass density...
Loading historical data...
Loading historical data...
Loading historical data...
Loading historical data...
Loading historical data...
Loading historical data...
Loading historical data...

Documentation

Showing up to 5 results
|